CZ-4C R/B (43278 NORAD) Tracking and Keplerian Element Data

This shows tracking and keplerian element data for the satellite.

Feedback or suggestion? Click here.




ElementValue
Catalog43278
NameCZ-4C R/B
Epoch Orbit398
Epoch Day129.55868388
Epoch Year2018
RAAN135.2387
Inclination63.4465
Eccentricity0.0104265
Argument of Perigee17.7565
Mean Anonmoly342.707
Mean Motion13.60639913
Decay Rate-1E-06
L11 43278U 18034D 18129.55868388 -.00000100 00000-0 -83320-5 0 9996
L22 43278 63.4465 135.2387 0104265 17.7565 342.7070 13.60639913 3986

Live tracking and technical data element details for CZ-4C R/B (NORAD 43278). CZ-4C R/B can be tracked NOW for your location showing map with azimuth and elevation plus other details from your city location.

Track the satellite on the map from your city or location and see movement details for azimuth, elevation, latitude, longitude, range, height, and movement on the map or in text.







IsCatalogInMostPopularTable: catalog: 43278, numindb: 56
Update: records affected: 1



GetName: 43278 CZ-4C R/B

Hit Count: updated at: Sat, 17 Nov 2018 04:36:02 GMT